Torna al catalogo

TELECOM 2B

AttivoComunicazioniGEO
NORAD 21939·PAYLOAD·🇫🇷 France

Lanciato Apr 15, 1992 da Guiana Space Centre

Loading…

TLE

AggiornatoSource: Space-Track

Epoca: Sep 14, 2026, 13:16 UTC

1 21939U 92021A   26257.55330102 -.00000335  00000-0  00000-0 0  9991
2 21939  14.5807   3.0402 0014701 120.3629 214.5155  0.99513928118274

Traccia TELECOM 2B in tempo reale con AllMySat

Download on the App Store